Tracking 31027 objects as of 19-Jul-2025
HD Live streaming from Space Station
objects crossing your sky now

COSMOS 1181

Track COSMOS 1181 now!
10-day predictions
COSMOS 1181 is classified as:


NORAD ID: 11803
Int'l Code: 1980-039A
Perigee: 974.3 km
Apogee: 1,009.3 km
Inclination: 82.9 °
Period: 104.8 minutes
Semi major axis: 7362 km
RCS: 3.1344 m2 (large)
Launch date: May 20, 1980
Source: Commonwealth of Independent States (former USSR) (CIS)
Launch site: PLESETSK MISSILE AND SPACE COMPLEX (PKMTR)
Your satellite tracking list
PRISMA
Track 1 satellite(s)




NASA's NSSDC Master Catalog

Two Line Element Set (TLE):
1 11803U 80039A   25199.47062729  .00000035  00000-0  20452-4 0  9991
2 11803  82.9426 102.6820 0023734  89.4509  83.5633 13.74170166264128
Source of the keplerian elements: AFSPC